CAPE
20 15 16 3 94 274 205 180 107 59 86 17 23 87 182 224 210 250 219 125 1 1 1 1 0 1 0 0 0 2 0 3 0 0 0 0 6 15
8 15 4 0 12 122 205 158 105 89 89 0 0 6 21 1 80 265 328 89 0 1 1 1 1 1 1 0 0 0 0 0 0 0 0 0 0 0
10 7 20 6 0 43 305 161 145 24 30 60 17 53 18 61 129 262 217 143 50 1 1 1 1 1 1 1 1 0 0 0 0 0 0 0 0 0
8 4 5 1 1 33 68 73 181 188 302 162 182 168 224 139 136 289 139 146 125 16 1 1 1 1 1 1 1 1 1 1 1 1 0 0 0 0
8 10 8 4 3 6 2 3 11 279 221 327 325 248 392 362 279 237 231 277 193 74 2 0 1 1 1 1 1 1 1 1 1 1 1 0 0 0
10 10 12 8 7 5 4 3 3 5 108 240 173 264 379 328 365 296 192 141 139 73 4 0 0 0 1 0 1 1 1 1 1 1 1 1 1 1
6 7 12 17 16 13 9 5 3 9 9 4 24 60 103 56 20 5 52 119 137 56 18 2 1 1 2 0 0 0 0 1 1 1 1 1 1 1
4 5 6 8 7 7 8 13 10 4 6 6 9 6 5 5 6 5 7 5 15 1 2 0 0 1 2 2 0 1 1 1 1 1 1 1 1 1
14 7 8 9 6 4 2 2 8 8 7 6 5 5 5 7 5 5 3 2 2 3 2 4 1 0 2 2 1 0 0 0 0 0 0 0 1 1
23 19 20 15 7 6 3 2 4 6 10 13 9 8 7 6 5 5 6 5 1 0 3 0 0 0 0 1 4 2 1 0 0 0 0 0 0 0
23 18 18 16 6 5 5 7 5 3 5 8 10 7 3 6 4 0 1 3 7 1 2 3 0 0 0 0 0 2 2 1 1 1 1 1 0 0
10 22 9 9 6 5 11 10 5 10 12 6 4 5 5 3 4 2 1 2 2 0 5 4 1 3 0 0 1 0 0 0 0 0 0 1 1 3
16 19 21 2 2 3 4 15 10 4 5 10 9 12 10 18 13 5 6 10 3 5 5 3 2 2 2 1 0 1 0 1 1 1 1 1 1 2
9 15 8 0 1 0 1 1 2 1 3 4 6 9 14 18 21 15 5 6 10 8 6 6 8 5 3 3 5 3 3 1 2 2 2 1 0 0
3 5 0 0 0 0 0 0 0 4 3 5 5 6 9 10 10 4 1 3 2 2 8 3 6 5 10 12 9 8 3 4 3 2 3 2 3 2
0 0 0 0 0 0 0 0 1 2 2 2 3 4 3 3 3 3 1 2 0 0 1 4 4 8 9 10 10 7 6 4 6 7 5 3 3 3
0 0 0 0 0 0 0 0 0 0 0 1 1 1 0 0 1 2 3 3 3 2 1 0 8 3 9 13 10 7 8 10 12 9 8 8 9 8
0 1 2 3 1 1 0 1 0 0 0 0 0 1 1 2 2 2 2 3 2 1 1 4 6 4 1 1 2 9 9 10 12 10 9 12 10 10
3 4 5 5 4 1 1 1 1 1 0 0 0 2 3 2 5 4 4 3 3 0 0 0 6 8 7 8 3 0 11 11 11 11 12 10 7 8
7 10 10 8 5 3 2 2 1 1 1 1 2 3 3 5 6 6 6 6 4 1 0 0 0 6 13 14 20 13 0 13 15 15 11 6 6 0
4 6 11 13 10 8 13 10 8 5 2 3 3 3 5 5 4 4 5 2 3 3 2 0 0 0 8 18 22 16 15 0 6 17 15 13 10 8
5 5 7 10 12 12 16 16 13 11 5 3 5 5 6 7 7 5 5 7 5 6 3 2 0 0 8 17 18 13 15 15 2 0 2 3 16 16
4 5 7 12 11 11 7 10 10 13 10 6 7 4 5 8 7 8 7 4 4 5 6 4 3 3 8 12 21 19 11 11 11 12 10 0 1 1
CIN
0 0 0 0 -7 -1 -4 -3 -4 -2 -2 -24 -37 -35 -46 -44 -97 -118 -52 -134 0 0 0 0 0 0 0 0 0 -113 0 -26 0 0 -1 0 -1 -3
0 0 -1 0 -34 -2 -2 -6 -8 -8 -1 0 -25 -110 -140 -6 -175 -117 -74 -200 0 0 0 0 0 0 0 0 0 0 0 0 0 0 0 0 0 0
0 0 0 0 0 -2 -2 -4 -5 -48 -18 -8 -33 -72 -93 -112 -117 -61 -78 -136 -250 0 0 0 0 0 0 0 0 0 0 0 0 0 0 0 0 0
0 0 0 0 0 -2 -19 -3 -1 0 0 -5 -3 -14 -57 -107 -46 0 -42 -167 -138 -101 0 0 0 0 0 0 0 0 0 0 0 0 0 0 0 0
0 0 0 0 0 0 0 0 0 0 -4 0 0 -5 -6 0 -1 0 -15 -107 -30 -187 0 0 0 0 0 0 0 0 0 0 0 0 0 0 0 0
0 0 0 0 0 0 0 0 0 0 -11 0 -1 -2 -2 -2 0 0 -8 -53 -51 -109 -37 0 0 0 0 0 0 0 0 0 0 0 0 0 0 0
0 0 0 0 0 0 0 0 0 0 0 0 0 -36 -19 0 0 -6 -10 -10 -13 0 -57 0 0 0 0 0 0 0 0 0 0 0 0 0 0 0
0 0 0 0 0 0 0 0 0 0 0 0 0 0 0 0 0 0 0 0 0 0 0 0 0 0 0 0 0 0 0 0 0 0 0 0 0 0
0 0 0 0 0 0 0 0 0 0 0 0 0 0 0 0 0 0 0 0 0 0 0 0 0 0 0 0 0 0 0 0 0 0 0 0 0 0
0 0 0 0 0 0 0 0 0 0 0 0 0 0 0 0 0 0 0 0 0 0 0 0 0 0 0 0 0 0 0 0 0 0 0 0 0 0
0 0 0 0 0 0 0 0 0 0 0 0 0 0 0 0 0 0 0 0 0 0 0 0 0 0 0 0 0 0 0 0 0 0 0 0 0 0
0 0 0 0 0 0 0 0 0 0 0 0 0 0 0 0 0 0 0 0 0 0 0 0 0 0 0 0 0 0 0 0 0 0 0 0 0 0
0 0 0 0 0 0 0 0 0 0 0 0 0 0 0 0 0 0 0 0 0 0 0 0 0 0 0 0 0 0 0 0 0 0 0 0 0 0
0 0 0 0 0 0 0 0 0 0 0 0 0 0 0 0 0 0 0 0 0 0 0 0 0 0 0 0 0 0 0 0 0 0 0 0 0 0
0 0 0 0 0 0 0 0 0 0 0 0 0 0 0 0 0 0 0 0 0 0 0 0 0 0 0 0 0 0 0 0 0 0 0 0 0 0
0 0 0 0 0 0 0 0 0 0 0 0 0 0 0 0 0 0 0 0 0 0 0 0 0 0 0 0 0 0 0 0 0 0 0 0 0 0
0 0 0 0 0 0 0 0 0 0 0 0 0 0 0 0 0 0 0 0 0 0 0 0 0 0 0 0 0 0 0 0 0 0 0 0 0 0
0 0 0 0 0 0 0 0 0 0 0 0 0 0 0 0 0 0 0 0 0 0 0 0 0 0 0 0 0 0 0 0 0 0 0 0 0 0
0 0 0 0 0 0 0 0 0 0 0 0 0 0 0 0 0 0 0 0 0 0 0 0 0 0 0 0 0 0 0 0 0 0 0 0 0 0
0 0 0 0 0 0 0 0 0 0 0 0 0 0 0 0 0 0 0 0 0 0 0 0 0 0 0 0 0 0 0 0 0 0 0 0 0 0
0 0 0 0 0 0 0 0 0 0 0 0 0 0 0 0 0 0 0 0 0 0 0 0 0 0 0 0 0 0 0 0 0 0 0 0 0 0
0 0 0 0 0 0 0 0 0 0 0 0 0 0 0 0 0 0 0 0 0 0 0 0 0 0 0 0 0 0 0 0 -1 0 0 0 0 0
0 0 0 0 0 0 0 0 0 0 0 0 0 0 0 0 0 0 0 0 0 0 0 0 0 0 0 0 0 0 0 0 0 0 0 0 0 0
Wind_Speed
10 8 8 6 10 11 11 10 10 10 14 9 6 10 8 10 11 12 14 15 19 19 20 21 22 22 22 20 21 23 25 26 27 27 28 28 27 26
8 13 11 7 8 7 12 11 10 12 8 7 7 8 12 16 16 15 15 11 14 19 19 19 20 20 21 22 20 21 24 25 25 26 27 27 28 28
9 9 11 10 7 10 8 9 12 13 18 12 9 17 19 11 7 10 9 10 8 18 19 19 19 19 20 22 21 22 24 24 24 24 24 26 28 28
14 15 15 9 12 7 9 8 9 9 10 15 11 9 13 11 12 14 10 8 9 12 18 19 20 20 20 21 21 20 21 22 22 22 23 25 28 28
17 16 17 17 14 10 10 10 7 6 8 8 8 6 8 10 12 11 10 7 8 9 14 18 20 20 20 20 19 19 19 20 20 20 20 21 23 26
17 19 18 19 18 15 13 13 10 8 5 7 8 7 7 6 8 8 6 5 7 6 9 10 13 16 17 17 17 16 17 18 17 18 18 19 19 19
18 17 19 22 30 27 13 16 13 8 7 7 5 5 6 6 6 8 8 7 7 4 7 5 5 6 8 12 13 18 19 17 16 16 16 17 17 18
17 17 16 22 21 28 27 33 28 16 16 11 9 10 12 11 9 8 6 6 8 7 5 3 3 5 1 1 3 7 13 13 13 13 13 14 13 14
19 16 15 15 18 15 23 28 29 33 27 15 13 14 11 13 10 9 6 4 3 9 5 2 6 3 5 5 7 9 9 9 8 5 2 4 6 9
20 20 20 20 22 17 15 18 19 18 19 13 13 11 12 13 13 9 10 7 2 3 10 3 6 5 4 5 13 12 10 11 10 9 8 5 3 4
18 22 20 21 32 30 18 17 16 16 16 23 23 25 25 27 24 10 14 9 4 5 10 6 5 2 2 3 2 12 11 12 9 10 9 8 6 4
16 18 32 26 32 32 19 16 15 15 14 14 15 17 19 18 25 15 10 9 6 5 10 8 6 6 2 1 3 2 4 10 10 10 10 10 11 4
13 13 14 29 31 30 27 17 16 14 16 13 11 11 13 13 11 11 12 9 8 4 8 6 6 6 4 4 2 3 4 5 5 5 6 8 7 8
14 12 14 26 27 30 21 26 23 14 10 11 11 11 12 12 12 11 12 8 7 8 9 11 5 5 5 3 4 3 4 1 4 5 5 4 6 7
12 17 23 24 24 19 28 26 19 13 12 11 12 11 12 10 10 12 11 10 6 9 8 11 8 8 6 5 5 4 5 3 3 4 3 4 5 4
13 12 14 16 17 15 14 15 12 12 11 11 11 10 10 11 11 11 10 11 8 9 11 11 12 9 5 6 5 6 6 5 6 4 3 3 4 4
10 10 11 12 12 13 12 13 13 13 13 12 11 12 11 11 11 10 10 10 9 10 11 11 13 9 5 7 5 7 6 6 6 6 5 4 3 5
11 12 12 12 12 12 12 12 12 13 11 11 11 11 10 10 11 10 10 11 10 10 10 10 11 10 7 1 7 7 7 7 6 5 4 4 3 5
10 11 10 10 10 10 10 11 11 10 11 9 9 9 10 10 11 10 10 10 10 9 10 9 9 9 9 8 5 3 8 8 7 5 4 3 2 4
9 9 9 9 9 9 9 9 9 9 9 9 10 10 10 9 9 9 9 11 11 10 9 9 9 9 9 9 10 9 8 8 8 6 4 2 3 1
9 9 9 8 8 8 7 7 7 8 8 9 9 9 10 9 10 10 10 12 12 10 11 11 11 16 10 9 7 7 6 4 8 8 4 4 2 2
8 9 9 8 8 8 8 7 7 7 7 8 8 9 9 9 10 11 10 11 11 11 11 10 12 11 9 9 9 10 7 5 3 3 8 8 5 3
8 9 8 8 8 8 8 9 8 7 7 7 7 8 9 9 9 10 11 11 11 11 11 12 11 10 9 8 9 7 9 7 4 4 2 6 8 8
Wind_Direction
262 287 293 280 239 219 222 212 217 234 229 209 208 209 209 220 216 215 229 222 213 224 221 216 211 213 214 205 200 201 207 211 214 215 215 216 219 218
261 263 261 272 296 241 230 228 219 222 244 197 213 249 249 241 225 211 225 215 205 215 219 218 217 215 211 208 203 201 205 209 215 216 216 214 217 217
258 273 267 270 253 280 258 227 234 219 238 231 221 227 243 258 241 226 223 211 220 210 212 217 214 214 214 213 199 205 207 204 210 215 217 216 216 219
28 30 23 2 357 284 275 263 234 210 220 221 203 210 235 244 236 227 220 198 221 210 208 213 217 215 215 212 201 203 206 206 207 210 213 217 219 220
34 36 32 26 21 2 14 3 313 222 214 231 236 221 219 227 221 226 228 205 227 223 206 208 212 215 216 217 218 207 210 209 206 207 210 213 217 219
41 38 40 38 31 24 24 11 347 328 276 216 228 235 227 215 235 240 226 206 237 244 222 213 203 211 215 211 216 214 210 213 211 214 212 214 216 220
44 40 39 43 47 46 39 32 18 15 5 358 353 326 312 316 340 330 272 265 237 314 241 197 199 208 217 218 219 212 216 206 211 214 219 222 220 223
40 39 35 33 37 45 44 50 46 39 39 38 27 24 18 352 346 334 329 322 231 36 321 222 201 178 143 181 180 212 210 215 208 214 223 225 225 225
36 38 38 33 34 36 41 47 45 46 47 42 41 31 22 352 344 333 354 326 25 350 308 309 341 81 62 44 62 98 110 121 122 130 188 235 239 234
36 32 35 33 32 32 36 43 41 40 39 39 41 35 27 14 12 346 328 310 112 358 347 22 357 31 35 30 45 43 65 87 92 92 94 79 22 297
37 39 37 35 32 30 35 38 38 34 27 33 35 34 31 29 28 14 16 350 34 20 14 336 348 330 337 87 13 41 43 9 70 65 57 42 21 317
38 36 38 42 38 36 34 28 33 22 16 24 24 22 15 23 27 32 11 9 359 2 5 349 327 341 7 17 54 20 34 8 345 51 36 15 12 349
36 30 32 35 40 40 40 33 30 18 20 23 26 21 19 10 21 17 28 12 13 27 341 312 4 8 313 325 26 52 20 8 314 351 33 8 350 13
39 36 30 36 37 39 38 34 32 33 30 32 31 24 16 10 6 9 23 16 24 26 352 1 0 350 306 322 343 11 353 65 344 2 351 7 342 359
41 39 40 39 38 35 34 31 29 25 26 28 23 16 9 2 2 6 14 8 10 24 2 9 5 330 335 341 325 333 340 339 8 351 348 3 2 346
39 39 36 40 40 34 31 29 26 23 22 20 14 9 6 6 11 8 5 359 359 0 0 5 5 346 341 338 324 346 342 326 341 344 334 12 356 335
43 45 41 36 35 31 30 29 24 19 19 16 13 8 7 6 3 4 6 1 4 355 355 353 357 351 329 339 350 352 340 334 354 353 344 350 20 360
41 39 37 34 32 28 27 24 25 22 15 11 12 9 3 2 356 0 2 359 357 351 349 349 350 346 0 130 34 351 345 338 341 346 333 317 347 19
40 35 33 30 29 29 26 23 20 19 11 14 11 10 1 358 355 359 358 353 347 342 343 342 348 357 346 340 334 42 337 334 329 321 346 354 1 31
26 24 24 21 20 23 20 19 16 13 14 8 12 7 1 352 355 356 354 347 340 336 337 342 348 349 328 317 312 312 328 335 341 324 338 351 56 32
13 10 3 2 4 2 9 6 4 6 5 3 7 2 360 351 353 349 344 344 332 338 333 334 335 319 300 294 289 310 332 344 351 345 322 285 289 270
6 2 3 357 352 348 341 347 347 357 360 0 2 0 357 349 349 346 344 337 336 333 326 325 328 323 317 317 316 314 314 330 284 355 29 10 344 320
4 356 351 351 353 350 348 340 330 332 343 346 352 355 353 347 347 343 338 335 331 328 330 327 327 324 316 308 302 310 314 311 310 295 255 15 351 325